Location: Cowley
(49.5667°N, 114.0667°W)
Time: 11:18:41
(UTC+00:00)

Envisat - Pass Details

Date: 02 December 2021
Orbit: 764 x 766 km, 98.2° (Epoch: 25 January)

Event Time Altitude Azimuth Distance (km) Brightness Sun altitude
Rises 11:46:20 0° 23° (NNE) 3,246 6.6 -32.6°
Reaches altitude 10° 11:48:59 10° 35° (NE) 2,314 5.9 -32.1°
Maximum altitude 11:53:19 27° 93° (E) 1,434 4.9 -31.4°
Drops below altitude 10° 11:57:36 10° 151° (SSE) 2,298 5.7 -30.7°
Sets 12:00:13 0° 163° (SSE) 3,219 6.4 -30.3°
